SCP
0 0 0 0 0 0 0 0 0 0 0 0 0 0 0 0 0 0 0 0 0 0 0 0 -0 0 0 -0 -0 -0 -0 -0
0 0 0 0 0 0 0 0 0 0 0 0 0 0 0 0 0 0 -0 -0 0 0 0 0 -0 0 0 0 0 -0 -0 -0
0 0 0 0 0 0 0 0 0 0 0 0 0 0 -0 -0 0 -0 -1 0 0 0 0 0 -0 -0 0 0 0 0 -0 -0
0 0 0 0 0 0 0 0 0 0 0 0 0 0 -0 -0 0 0 -0 0 0 0 0 0 0 0 0 0 0 0 0 0
0 0 0 0 0 0 0 0 0 0 0 0 0 0 0 0 0 0 0 1 1 1 0 0 0 0 0 0 0 0 0 0
0 0 0 0 0 0 0 0 0 0 0 0 0 0 -1 0 0 0 0 1 1 1 0 0 0 0 0 0 0 0 0 0
0 0 0 0 0 0 0 0 0 0 0 0 0 -1 -3 -0 0 0 1 1 1 1 0 0 0 0 0 0 0 0 0 0
0 0 0 0 0 0 0 0 0 0 0 0 -0 -0 -2 -0 -0 0 0 0 1 2 0 0 0 0 0 0 0 0 0 0
0 0 0 0 0 0 0 0 0 0 0 0 0 -0 -1 -1 0 0 1 1 1 1 1 0 0 0 0 0 0 0 0 0
0 0 0 0 0 0 0 0 0 0 0 0 0 0 -0 -0 0 1 1 1 1 1 1 1 0 0 0 0 0 0 0 0
0 0 0 0 0 0 0 0 0 0 0 0 0 0 0 -0 -0 1 0 1 1 1 1 1 0 0 0 0 0 0 0 0
0 0 0 0 0 0 0 0 0 0 0 0 0 0 0 0 -0 -0 -0 0 1 1 2 1 0 0 0 0 0 0 0 0
0 0 0 0 0 0 0 0 0 0 0 0 0 0 0 0 0 0 0 0 1 2 1 1 1 0 0 0 0 0 0 0
0 0 0 0 0 0 0 0 0 0 0 0 0 0 0 0 0 0 0 0 1 1 1 1 1 0 0 0 0 0 0 0
0 0 0 0 0 0 0 0 0 0 0 0 0 0 0 0 0 -0 0 1 1 2 1 1 0 0 0 0 0 0 0 0
0 0 0 0 -0 0 0 0 0 0 0 0 0 0 0 0 -0 -0 -0 0 1 2 1 1 0 0 0 0 0 0 0 0
0 0 0 0 0 0 0 0 0 0 0 0 0 0 0 0 -0 0 0 1 2 2 1 1 0 0 0 0 0 0 0 0
0 0 0 0 0 -0 0 0 0 0 0 0 0 0 0 0 -0 -0 0 1 1 1 1 1 0 0 0 0 0 0 0 0
0 0 0 0 0 0 0 -0 0 0 0 0 0 0 0 0 -0 -0 0 1 1 1 1 1 1 0 1 0 0 0 0 0
0 0 0 0 0 0 0 0 0 0 0 0 -0 0 0 0 -0 -0 1 1 1 1 0 1 0 1 1 0 0 0 0 1
Wind_Speed_500mb
7 6 17 9 11 14 15 19 10 7 8 9 9 12 13 27 15 32 54 74 72 65 57 50 44 51 56 54 49 45 41 37
8 18 7 6 9 6 15 9 8 17 16 17 16 18 15 23 21 32 57 69 69 62 56 51 47 49 54 54 50 45 42 40
5 10 5 11 13 9 15 10 15 19 14 21 23 23 36 35 25 41 62 71 71 64 56 49 46 48 50 51 50 47 45 43
15 13 5 14 13 10 9 6 18 12 29 15 7 26 44 27 31 47 51 66 67 65 57 50 45 45 47 49 49 47 45 42
5 8 6 7 6 6 6 13 8 33 15 20 30 47 50 43 30 48 49 60 68 66 58 52 47 44 44 47 46 45 44 40
9 11 14 3 13 11 12 21 28 12 10 18 58 65 48 33 29 47 51 60 73 71 64 57 50 48 46 46 44 44 41 37
6 8 7 6 24 15 15 32 32 25 44 46 49 56 29 16 27 41 55 55 76 74 70 63 55 50 46 43 41 39 39 37
3 6 19 20 21 40 16 24 32 43 43 26 34 35 25 14 19 31 43 52 74 77 76 69 61 56 52 47 44 42 40 37
9 14 16 20 24 21 26 21 27 38 50 42 35 31 32 24 23 27 31 45 61 79 76 73 68 64 57 52 46 41 37 35
9 15 18 22 28 25 32 34 35 38 49 48 43 35 27 26 23 24 32 38 58 74 78 76 72 63 58 52 45 40 37 36
25 36 35 31 32 29 26 30 32 35 38 32 37 37 33 25 26 33 29 42 41 62 75 77 70 67 61 54 48 41 38 37
28 30 20 18 22 12 21 21 21 18 26 31 30 31 33 30 27 28 40 40 49 52 63 71 70 65 61 56 50 44 38 38
2 7 12 17 20 13 3 13 25 30 32 37 36 31 37 39 36 32 38 49 53 62 61 68 70 64 60 56 51 44 39 38
10 12 5 13 21 12 12 25 41 41 39 47 45 42 40 39 35 36 37 51 58 63 77 70 71 69 62 58 51 45 40 40
17 11 13 7 31 5 32 35 30 38 36 43 53 49 42 40 39 42 37 47 58 63 73 78 71 69 61 58 53 46 44 44
26 10 30 30 49 34 28 37 39 40 38 41 54 51 45 38 38 37 40 44 56 60 54 70 65 64 60 58 55 50 48 45
34 32 30 31 46 40 32 34 42 39 37 41 51 55 49 39 37 33 42 47 53 55 51 60 65 66 67 66 62 53 50 48
33 21 19 33 48 47 32 37 38 34 38 45 53 56 51 44 37 37 49 52 46 49 50 66 65 69 68 66 61 53 52 51
43 41 35 35 49 48 27 28 26 34 41 47 51 57 51 46 38 39 59 68 48 57 62 68 66 69 65 65 61 59 57 55
24 21 18 11 23 44 28 13 23 22 29 34 46 50 55 50 38 42 57 63 60 56 71 69 68 69 70 69 66 60 59 58
Wind_Direction_500mb
185 209 230 244 191 234 304 322 341 315 283 274 250 272 249 259 285 191 194 194 187 184 184 180 179 181 181 185 184 186 186 181
228 221 216 248 134 330 327 318 349 342 280 289 278 311 295 307 257 205 190 187 185 187 185 183 181 182 184 189 192 192 191 184
211 247 281 251 270 289 313 300 306 340 306 290 315 313 297 298 249 197 182 184 186 189 186 187 185 183 185 191 192 193 189 182
228 239 214 265 251 270 273 297 302 328 312 282 7 343 346 311 227 197 192 186 188 191 187 188 186 183 186 190 189 189 187 182
194 255 243 256 5 148 326 304 300 327 288 278 303 329 316 308 218 200 200 193 191 194 189 190 186 184 187 191 189 189 189 185
221 244 266 330 322 326 310 305 311 301 267 304 316 327 317 287 250 211 202 202 198 194 190 192 191 186 187 190 189 189 193 192
214 201 271 14 325 306 298 293 294 272 279 289 310 324 331 265 240 219 214 207 202 195 194 194 190 190 190 190 190 192 195 195
221 254 294 319 301 307 302 308 293 294 286 290 304 319 322 270 228 212 213 206 199 198 195 195 192 191 190 191 191 195 198 198
248 259 290 297 287 300 292 288 299 295 293 290 302 299 304 282 256 227 209 215 200 197 197 197 195 193 194 193 193 196 198 199
249 268 293 283 291 275 279 288 292 288 290 288 290 280 283 274 257 246 229 207 210 200 198 199 199 197 198 196 195 198 198 197
279 283 281 280 263 275 265 279 293 298 300 298 289 280 277 285 265 260 245 233 206 205 200 204 201 201 200 199 198 201 200 197
289 285 271 270 285 261 261 306 279 313 305 308 301 293 285 278 285 273 251 240 228 213 205 207 207 206 203 202 201 202 203 200
243 320 304 318 291 229 39 331 321 325 313 302 299 289 287 283 285 276 259 244 236 224 216 209 211 210 209 206 204 205 205 202
333 307 330 333 271 299 308 330 310 304 300 296 293 290 282 279 277 272 260 240 235 223 222 213 212 212 210 208 206 207 205 205
306 279 290 256 292 261 297 305 291 294 289 284 285 286 282 275 275 276 251 237 231 225 221 215 213 213 209 208 207 208 206 204
284 280 293 288 277 280 283 286 286 281 282 280 277 274 278 276 277 268 238 229 231 220 219 215 210 209 206 208 208 210 206 202
279 282 284 282 280 287 294 279 281 272 268 273 274 268 270 273 267 255 224 221 221 217 220 209 206 202 201 206 207 206 203 197
290 267 280 288 288 292 292 275 276 274 272 274 271 268 263 268 257 248 225 221 215 218 222 202 199 200 201 204 208 209 204 199
286 294 287 286 283 286 296 277 277 268 273 269 264 261 257 263 257 241 224 219 211 212 205 197 193 196 196 204 206 203 200 198
302 294 291 325 290 289 295 294 299 307 294 278 260 260 258 259 256 231 224 214 209 212 201 191 190 193 198 203 204 202 199 196
Wind_Speed_850mb
7 6 17 9 11 14 15 19 10 7 8 9 9 12 13 27 15 32 54 74 72 65 57 50 44 51 56 54 49 45 41 37
8 18 7 6 9 6 15 9 8 17 16 17 16 18 15 23 21 32 57 69 69 62 56 51 47 49 54 54 50 45 42 40
5 10 5 11 13 9 15 10 15 19 14 21 23 23 36 35 25 41 62 71 71 64 56 49 46 48 50 51 50 47 45 43
15 13 5 14 13 10 9 6 18 12 29 15 7 26 44 27 31 47 51 66 67 65 57 50 45 45 47 49 49 47 45 42
5 8 6 7 6 6 6 13 8 33 15 20 30 47 50 43 30 48 49 60 68 66 58 52 47 44 44 47 46 45 44 40
9 11 14 3 13 11 12 21 28 12 10 18 58 65 48 33 29 47 51 60 73 71 64 57 50 48 46 46 44 44 41 37
6 8 7 6 24 15 15 32 32 25 44 46 49 56 29 16 27 41 55 55 76 74 70 63 55 50 46 43 41 39 39 37
3 6 19 20 21 40 16 24 32 43 43 26 34 35 25 14 19 31 43 52 74 77 76 69 61 56 52 47 44 42 40 37
9 14 16 20 24 21 26 21 27 38 50 42 35 31 32 24 23 27 31 45 61 79 76 73 68 64 57 52 46 41 37 35
9 15 18 22 28 25 32 34 35 38 49 48 43 35 27 26 23 24 32 38 58 74 78 76 72 63 58 52 45 40 37 36
25 36 35 31 32 29 26 30 32 35 38 32 37 37 33 25 26 33 29 42 41 62 75 77 70 67 61 54 48 41 38 37
28 30 20 18 22 12 21 21 21 18 26 31 30 31 33 30 27 28 40 40 49 52 63 71 70 65 61 56 50 44 38 38
2 7 12 17 20 13 3 13 25 30 32 37 36 31 37 39 36 32 38 49 53 62 61 68 70 64 60 56 51 44 39 38
10 12 5 13 21 12 12 25 41 41 39 47 45 42 40 39 35 36 37 51 58 63 77 70 71 69 62 58 51 45 40 40
17 11 13 7 31 5 32 35 30 38 36 43 53 49 42 40 39 42 37 47 58 63 73 78 71 69 61 58 53 46 44 44
26 10 30 30 49 34 28 37 39 40 38 41 54 51 45 38 38 37 40 44 56 60 54 70 65 64 60 58 55 50 48 45
34 32 30 31 46 40 32 34 42 39 37 41 51 55 49 39 37 33 42 47 53 55 51 60 65 66 67 66 62 53 50 48
33 21 19 33 48 47 32 37 38 34 38 45 53 56 51 44 37 37 49 52 46 49 50 66 65 69 68 66 61 53 52 51
43 41 35 35 49 48 27 28 26 34 41 47 51 57 51 46 38 39 59 68 48 57 62 68 66 69 65 65 61 59 57 55
24 21 18 11 23 44 28 13 23 22 29 34 46 50 55 50 38 42 57 63 60 56 71 69 68 69 70 69 66 60 59 58
Wind_Direction_850mb
185 209 230 244 191 234 304 322 341 315 283 274 250 272 249 259 285 191 194 194 187 184 184 180 179 181 181 185 184 186 186 181
228 221 216 248 134 330 327 318 349 342 280 289 278 311 295 307 257 205 190 187 185 187 185 183 181 182 184 189 192 192 191 184
211 247 281 251 270 289 313 300 306 340 306 290 315 313 297 298 249 197 182 184 186 189 186 187 185 183 185 191 192 193 189 182
228 239 214 265 251 270 273 297 302 328 312 282 7 343 346 311 227 197 192 186 188 191 187 188 186 183 186 190 189 189 187 182
194 255 243 256 5 148 326 304 300 327 288 278 303 329 316 308 218 200 200 193 191 194 189 190 186 184 187 191 189 189 189 185
221 244 266 330 322 326 310 305 311 301 267 304 316 327 317 287 250 211 202 202 198 194 190 192 191 186 187 190 189 189 193 192
214 201 271 14 325 306 298 293 294 272 279 289 310 324 331 265 240 219 214 207 202 195 194 194 190 190 190 190 190 192 195 195
221 254 294 319 301 307 302 308 293 294 286 290 304 319 322 270 228 212 213 206 199 198 195 195 192 191 190 191 191 195 198 198
248 259 290 297 287 300 292 288 299 295 293 290 302 299 304 282 256 227 209 215 200 197 197 197 195 193 194 193 193 196 198 199
249 268 293 283 291 275 279 288 292 288 290 288 290 280 283 274 257 246 229 207 210 200 198 199 199 197 198 196 195 198 198 197
279 283 281 280 263 275 265 279 293 298 300 298 289 280 277 285 265 260 245 233 206 205 200 204 201 201 200 199 198 201 200 197
289 285 271 270 285 261 261 306 279 313 305 308 301 293 285 278 285 273 251 240 228 213 205 207 207 206 203 202 201 202 203 200
243 320 304 318 291 229 39 331 321 325 313 302 299 289 287 283 285 276 259 244 236 224 216 209 211 210 209 206 204 205 205 202
333 307 330 333 271 299 308 330 310 304 300 296 293 290 282 279 277 272 260 240 235 223 222 213 212 212 210 208 206 207 205 205
306 279 290 256 292 261 297 305 291 294 289 284 285 286 282 275 275 276 251 237 231 225 221 215 213 213 209 208 207 208 206 204
284 280 293 288 277 280 283 286 286 281 282 280 277 274 278 276 277 268 238 229 231 220 219 215 210 209 206 208 208 210 206 202
279 282 284 282 280 287 294 279 281 272 268 273 274 268 270 273 267 255 224 221 221 217 220 209 206 202 201 206 207 206 203 197
290 267 280 288 288 292 292 275 276 274 272 274 271 268 263 268 257 248 225 221 215 218 222 202 199 200 201 204 208 209 204 199
286 294 287 286 283 286 296 277 277 268 273 269 264 261 257 263 257 241 224 219 211 212 205 197 193 196 196 204 206 203 200 198
302 294 291 325 290 289 295 294 299 307 294 278 260 260 258 259 256 231 224 214 209 212 201 191 190 193 198 203 204 202 199 196